Time,TemperatureF,DewpointF,PressureIn,WindDirection,WindDirectionDegrees,WindSpeedMPH,WindSpeedGustMPH,Humidity,HourlyPrecipIn,Conditions,Clouds,dailyrainin,SoftwareType,DateUTC
2013-03-22 00:06:00,26.0,22.4,29.78,North,360,10.0,26.0,86,0.00,,,-99.99,Weather View 32 v60,2013-03-22 04:06:00,
2013-03-22 00:11:00,26.0,22.4,29.79,NNW,337,15.0,26.0,86,0.00,,,-99.99,Weather View 32 v60,2013-03-22 04:11:00,
2013-03-22 00:16:00,26.0,22.1,29.79,NE,45,7.0,26.0,85,0.00,,,-99.99,Weather View 32 v60,2013-03-22 04:16:00,
2013-03-22 00:21:00,26.0,22.4,29.79,North,360,17.0,26.0,86,0.00,,,-99.99,Weather View 32 v60,2013-03-22 04:21:00,
2013-03-22 00:26:00,26.0,22.9,29.79,North,360,14.0,26.0,88,0.00,,,-99.99,Weather View 32 v60,2013-03-22 04:26:00,
2013-03-22 00:31:00,26.0,22.9,29.79,West,270,5.0,25.0,88,0.00,,,-99.99,Weather View 32 v60,2013-03-22 04:31:00,
2013-03-22 00:41:00,26.0,22.1,29.79,NNW,337,11.0,23.0,85,0.00,,,-99.99,Weather View 32 v60,2013-03-22 04:41:00,
2013-03-22 00:46:00,26.0,21.8,29.79,NW,315,11.0,23.0,84,0.00,,,-99.99,Weather View 32 v60,2013-03-22 04:46:00,
2013-03-22 00:56:00,26.0,22.4,29.79,West,270,14.0,30.0,86,0.00,,,-99.99,Weather View 32 v60,2013-03-22 04:56:00,
2013-03-22 01:06:00,27.0,23.1,29.79,NW,315,12.0,30.0,85,0.00,,,-99.99,Weather View 32 v60,2013-03-22 05:06:00,
2013-03-22 01:11:00,26.0,22.4,29.79,West,270,7.0,30.0,86,0.00,,,-99.99,Weather View 32 v60,2013-03-22 05:11:00,
2013-03-22 01:16:00,27.0,22.5,29.79,NW,315,15.0,30.0,83,0.00,,,-99.99,Weather View 32 v60,2013-03-22 05:16:00,
2013-03-22 01:21:00,26.0,22.1,29.79,North,360,7.0,30.0,85,0.00,,,-99.99,Weather View 32 v60,2013-03-22 05:21:00,
2013-03-22 01:26:00,27.0,23.1,29.79,North,360,9.0,30.0,85,0.00,,,-99.99,Weather View 32 v60,2013-03-22 05:26:00,
2013-03-22 01:31:00,27.0,23.1,29.79,NNE,22,10.0,30.0,85,0.00,,,-99.99,Weather View 32 v60,2013-03-22 05:31:00,
2013-03-22 01:36:00,27.0,22.8,29.79,North,360,12.0,30.0,84,0.00,,,-99.99,Weather View 32 v60,2013-03-22 05:36:00,
2013-03-22 02:00:00,27.0,23.1,29.79,West,270,6.0,24.0,85,0.00,,,-99.99,Weather View 32 v60,2013-03-22 06:00:00,
2013-03-22 02:06:00,27.0,23.1,29.79,NNE,22,4.0,24.0,85,0.00,,,-99.99,Weather View 32 v60,2013-03-22 06:06:00,
2013-03-22 02:11:00,27.0,23.6,29.78,NNW,337,9.0,24.0,87,0.00,,,-99.99,Weather View 32 v60,2013-03-22 06:11:00,
2013-03-22 02:16:00,27.0,22.5,29.78,North,360,11.0,24.0,83,0.00,,,-99.99,Weather View 32 v60,2013-03-22 06:16:00,
2013-03-22 02:26:00,27.0,23.1,29.78,NNW,337,9.0,27.0,85,0.00,,,-99.99,Weather View 32 v60,2013-03-22 06:26:00,
2013-03-22 02:31:00,27.0,23.9,29.78,NW,315,10.0,27.0,88,0.00,,,-99.99,Weather View 32 v60,2013-03-22 06:31:00,
2013-03-22 02:36:00,27.0,23.1,29.78,WNW,292,16.0,27.0,85,0.00,,,-99.99,Weather View 32 v60,2013-03-22 06:36:00,
2013-03-22 02:46:00,27.0,23.9,29.78,West,270,6.0,30.0,88,0.00,,,-99.99,Weather View 32 v60,2013-03-22 06:46:00,
2013-03-22 03:06:00,27.0,22.5,29.78,NW,315,11.0,30.0,83,0.00,,,-99.99,Weather View 32 v60,2013-03-22 07:06:00,
2013-03-22 03:11:00,27.0,22.8,29.78,NNW,337,14.0,30.0,84,0.00,,,-99.99,Weather View 32 v60,2013-03-22 07:11:00,
2013-03-22 03:16:00,27.0,22.5,29.78,NW,315,10.0,30.0,83,0.00,,,-99.99,Weather View 32 v60,2013-03-22 07:16:00,
2013-03-22 03:21:00,27.0,22.2,29.78,NW,315,13.0,30.0,82,0.00,,,-99.99,Weather View 32 v60,2013-03-22 07:21:00,
2013-03-22 03:26:00,27.0,21.9,29.78,NW,315,11.0,30.0,81,0.00,,,-99.99,Weather View 32 v60,2013-03-22 07:26:00,
2013-03-22 03:31:00,27.0,21.1,29.77,NW,315,13.0,30.0,78,0.00,,,-99.99,Weather View 32 v60,2013-03-22 07:31:00,
2013-03-22 03:41:00,27.0,21.7,29.78,NNW,337,9.0,30.0,80,0.00,,,-99.99,Weather View 32 v60,2013-03-22 07:41:00,
2013-03-22 03:46:00,27.0,22.5,29.78,NNW,337,5.0,28.0,83,0.00,,,-99.99,Weather View 32 v60,2013-03-22 07:46:00,
2013-03-22 03:51:00,27.0,23.1,29.78,NNW,337,10.0,27.0,85,0.00,,,-99.99,Weather View 32 v60,2013-03-22 07:51:00,
2013-03-22 03:56:00,27.0,22.5,29.78,NW,315,18.0,27.0,83,0.00,,,-99.99,Weather View 32 v60,2013-03-22 07:56:00,
2013-03-22 04:01:00,27.0,22.2,29.78,NW,315,14.0,27.0,82,0.00,,,-99.99,Weather View 32 v60,2013-03-22 08:01:00,
2013-03-22 04:11:00,27.0,22.5,29.78,NW,315,15.0,22.0,83,0.00,,,-99.99,Weather View 32 v60,2013-03-22 08:11:00,
2013-03-22 04:16:00,27.0,22.2,29.78,NW,315,14.0,27.0,82,0.00,,,-99.99,Weather View 32 v60,2013-03-22 08:16:00,
2013-03-22 04:21:00,27.0,23.6,29.78,NNW,337,14.0,28.0,87,0.00,,,-99.99,Weather View 32 v60,2013-03-22 08:21:00,
2013-03-22 04:26:00,27.0,23.4,29.78,NW,315,21.0,36.0,86,0.00,,,-99.99,Weather View 32 v60,2013-03-22 08:26:00,
2013-03-22 04:31:00,27.0,22.2,29.78,NW,315,11.0,36.0,82,0.00,,,-99.99,Weather View 32 v60,2013-03-22 08:31:00,
2013-03-22 04:36:00,27.0,22.5,29.78,NW,315,16.0,36.0,83,0.00,,,-99.99,Weather View 32 v60,2013-03-22 08:36:00,
2013-03-22 04:51:00,27.0,21.7,29.78,WNW,292,12.0,36.0,80,0.00,,,-99.99,Weather View 32 v60,2013-03-22 08:51:00,
2013-03-22 04:56:00,27.0,21.9,29.78,NNW,337,12.0,36.0,81,0.00,,,-99.99,Weather View 32 v60,2013-03-22 08:56:00,
2013-03-22 05:01:00,27.0,21.4,29.78,NW,315,11.0,36.0,79,0.00,,,-99.99,Weather View 32 v60,2013-03-22 09:01:00,
2013-03-22 05:11:00,27.0,22.2,29.78,NW,315,12.0,36.0,82,0.00,,,-99.99,Weather View 32 v60,2013-03-22 09:11:00,
2013-03-22 05:16:00,27.0,22.5,29.78,NW,315,16.0,36.0,83,0.00,,,-99.99,Weather View 32 v60,2013-03-22 09:16:00,
2013-03-22 05:21:00,27.0,21.7,29.77,NW,315,18.0,36.0,80,0.00,,,-99.99,Weather View 32 v60,2013-03-22 09:21:00,
2013-03-22 05:31:00,27.0,22.2,29.78,NW,315,4.0,33.0,82,0.00,,,-99.99,Weather View 32 v60,2013-03-22 09:31:00,
2013-03-22 05:56:00,27.0,21.9,29.78,NW,315,17.0,32.0,81,0.00,,,-99.99,Weather View 32 v60,2013-03-22 09:56:00,
2013-03-22 06:01:00,27.0,22.2,29.78,NW,315,16.0,32.0,82,0.00,,,-99.99,Weather View 32 v60,2013-03-22 10:01:00,
2013-03-22 06:06:00,27.0,22.8,29.78,NW,315,10.0,32.0,84,0.00,,,-99.99,Weather View 32 v60,2013-03-22 10:06:00,
2013-03-22 06:11:00,27.0,22.5,29.79,North,360,10.0,32.0,83,0.00,,,-99.99,Weather View 32 v60,2013-03-22 10:11:00,
2013-03-22 06:21:00,27.0,23.1,29.78,NW,315,14.0,26.0,85,0.00,,,-99.99,Weather View 32 v60,2013-03-22 10:21:00,
2013-03-22 06:26:00,27.0,22.8,29.78,NW,315,17.0,22.0,84,0.00,,,-99.99,Weather View 32 v60,2013-03-22 10:26:00,
2013-03-22 06:36:00,27.0,22.5,29.78,NW,315,11.0,22.0,83,0.00,,,-99.99,Weather View 32 v60,2013-03-22 10:36:00,
2013-03-22 06:41:00,27.0,22.8,29.79,NW,315,10.0,32.0,84,0.00,,,-99.99,Weather View 32 v60,2013-03-22 10:41:00,
2013-03-22 06:46:00,27.0,22.5,29.79,WNW,292,10.0,32.0,83,0.00,,,-99.99,Weather View 32 v60,2013-03-22 10:46:00,
2013-03-22 06:51:00,27.0,22.2,29.79,NW,315,16.0,32.0,82,0.00,,,-99.99,Weather View 32 v60,2013-03-22 10:51:00,
2013-03-22 06:56:00,27.0,22.5,29.79,North,360,8.0,32.0,83,0.00,,,-99.99,Weather View 32 v60,2013-03-22 10:56:00,
2013-03-22 07:01:00,27.0,21.9,29.79,WNW,292,9.0,32.0,81,0.00,,,-99.99,Weather View 32 v60,2013-03-22 11:01:00,
2013-03-22 07:06:00,27.0,22.5,29.79,NW,315,17.0,32.0,83,0.00,,,-99.99,Weather View 32 v60,2013-03-22 11:06:00,
2013-03-22 07:11:00,27.0,22.8,29.79,NNW,337,10.0,32.0,84,0.00,,,-99.99,Weather View 32 v60,2013-03-22 11:11:00,
2013-03-22 07:16:00,27.0,23.1,29.79,WNW,292,14.0,32.0,85,0.00,,,-99.99,Weather View 32 v60,2013-03-22 11:16:00,
2013-03-22 07:21:00,27.0,23.1,29.79,NW,315,12.0,32.0,85,0.00,,,-99.99,Weather View 32 v60,2013-03-22 11:21:00,
2013-03-22 07:26:00,27.0,23.9,29.79,North,360,8.0,32.0,88,0.00,,,-99.99,Weather View 32 v60,2013-03-22 11:26:00,
2013-03-22 07:31:00,27.0,23.4,29.79,NNE,22,10.0,32.0,86,0.00,,,-99.99,Weather View 32 v60,2013-03-22 11:31:00,
2013-03-22 07:36:00,27.0,23.6,29.79,WNW,292,7.0,32.0,87,0.00,,,-99.99,Weather View 32 v60,2013-03-22 11:36:00,
2013-03-22 07:41:00,27.0,23.6,29.78,WNW,292,14.0,30.0,87,0.00,,,-99.99,Weather View 32 v60,2013-03-22 11:41:00,
2013-03-22 07:46:00,27.0,23.6,29.78,NW,315,14.0,30.0,87,0.00,,,-99.99,Weather View 32 v60,2013-03-22 11:46:00,
2013-03-22 07:51:00,27.0,23.6,29.79,WNW,292,12.0,30.0,87,0.00,,,-99.99,Weather View 32 v60,2013-03-22 11:51:00,
2013-03-22 07:56:00,27.0,24.2,29.79,NW,315,14.0,30.0,89,0.00,,,-99.99,Weather View 32 v60,2013-03-22 11:56:00,
2013-03-22 08:03:00,27.0,23.4,29.79,NW,315,14.0,30.0,86,0.00,,,-99.99,Weather View 32 v60,2013-03-22 12:03:00,
2013-03-22 08:11:00,27.0,23.9,29.79,NW,315,12.0,25.0,88,0.00,,,-99.99,Weather View 32 v60,2013-03-22 12:11:00,
2013-03-22 08:16:00,27.0,23.4,29.79,NNW,337,10.0,25.0,86,0.00,,,-99.99,Weather View 32 v60,2013-03-22 12:16:00,
2013-03-22 08:21:00,28.0,24.6,29.80,NW,315,16.0,25.0,87,0.00,,,-99.99,Weather View 32 v60,2013-03-22 12:21:00,
2013-03-22 08:26:00,28.0,24.4,29.80,NW,315,14.0,25.0,86,0.00,,,-99.99,Weather View 32 v60,2013-03-22 12:26:00,
2013-03-22 08:41:00,28.0,24.1,29.79,NW,315,12.0,34.0,85,0.00,,,-99.99,Weather View 32 v60,2013-03-22 12:41:00,
2013-03-22 08:56:00,28.0,24.9,29.78,NW,315,14.0,34.0,88,0.00,,,-99.99,Weather View 32 v60,2013-03-22 12:56:00,
2013-03-22 09:04:00,28.0,25.2,29.79,NW,315,15.0,34.0,89,0.00,,,-99.99,Weather View 32 v60,2013-03-22 13:04:00,
2013-03-22 09:11:00,28.0,24.9,29.78,NW,315,28.0,34.0,88,0.00,,,-99.99,Weather View 32 v60,2013-03-22 13:11:00,
2013-03-22 09:16:00,28.0,25.4,29.78,NW,315,12.0,34.0,90,0.00,,,-99.99,Weather View 32 v60,2013-03-22 13:16:00,
2013-03-22 09:21:00,28.0,26.0,29.77,NW,315,15.0,34.0,92,0.00,,,-99.99,Weather View 32 v60,2013-03-22 13:21:00,
2013-03-22 09:26:00,28.0,24.9,29.77,NW,315,17.0,34.0,88,0.00,,,-99.99,Weather View 32 v60,2013-03-22 13:26:00,
2013-03-22 09:36:00,28.0,25.4,29.77,NW,315,14.0,34.0,90,0.00,,,-99.99,Weather View 32 v60,2013-03-22 13:36:00,
2013-03-22 09:41:00,29.0,25.6,29.77,NW,315,7.0,34.0,87,0.00,,,-99.99,Weather View 32 v60,2013-03-22 13:41:00,
2013-03-22 09:46:00,29.0,25.9,29.77,NNW,337,6.0,33.0,88,0.00,,,-99.99,Weather View 32 v60,2013-03-22 13:46:00,
2013-03-22 09:51:00,29.0,25.6,29.77,NW,315,10.0,33.0,87,0.00,,,-99.99,Weather View 32 v60,2013-03-22 13:51:00,
2013-03-22 09:56:00,29.0,25.9,29.77,NNW,337,10.0,33.0,88,0.00,,,-99.99,Weather View 32 v60,2013-03-22 13:56:00,
2013-03-22 10:01:00,29.0,25.6,29.77,WNW,292,7.0,30.0,87,0.00,,,-99.99,Weather View 32 v60,2013-03-22 14:01:00,
2013-03-22 10:06:00,29.0,25.9,29.77,NW,315,8.0,28.0,88,0.00,,,-99.99,Weather View 32 v60,2013-03-22 14:06:00,
2013-03-22 10:11:00,29.0,25.6,29.77,NW,315,15.0,28.0,87,0.00,,,-99.99,Weather View 32 v60,2013-03-22 14:11:00,
2013-03-22 10:16:00,29.0,25.6,29.77,NW,315,10.0,27.0,87,0.00,,,-99.99,Weather View 32 v60,2013-03-22 14:16:00,
2013-03-22 10:21:00,29.0,25.6,29.77,NW,315,12.0,27.0,87,0.00,,,-99.99,Weather View 32 v60,2013-03-22 14:21:00,
2013-03-22 10:26:00,30.0,26.9,29.77,NW,315,9.0,27.0,88,0.00,,,-99.99,Weather View 32 v60,2013-03-22 14:26:00,
2013-03-22 10:31:00,29.0,25.6,29.77,NW,315,9.0,27.0,87,0.00,,,-99.99,Weather View 32 v60,2013-03-22 14:31:00,
2013-03-22 10:36:00,30.0,26.0,29.77,NW,315,9.0,24.0,85,0.00,,,-99.99,Weather View 32 v60,2013-03-22 14:36:00,
2013-03-22 10:41:00,29.0,25.3,29.77,NW,315,9.0,24.0,86,0.00,,,-99.99,Weather View 32 v60,2013-03-22 14:41:00,
2013-03-22 10:46:00,29.0,25.6,29.77,NW,315,10.0,24.0,87,0.00,,,-99.99,Weather View 32 v60,2013-03-22 14:46:00,
2013-03-22 11:01:00,30.0,26.3,29.78,NW,315,7.0,24.0,86,0.00,,,-99.99,Weather View 32 v60,2013-03-22 15:01:00,
2013-03-22 11:11:00,30.0,26.3,29.78,NW,315,10.0,20.0,86,0.00,,,-99.99,Weather View 32 v60,2013-03-22 15:11:00,
2013-03-22 11:16:00,30.0,26.6,29.78,NW,315,9.0,20.0,87,0.00,,,-99.99,Weather View 32 v60,2013-03-22 15:16:00,
2013-03-22 11:26:00,30.0,27.4,29.78,North,360,8.0,20.0,90,0.00,,,-99.99,Weather View 32 v60,2013-03-22 15:26:00,
2013-03-22 11:31:00,30.0,27.4,29.78,North,360,10.0,20.0,90,0.00,,,-99.99,Weather View 32 v60,2013-03-22 15:31:00,
2013-03-22 11:36:00,30.0,27.4,29.78,NW,315,0.0,20.0,90,0.00,,,-99.99,Weather View 32 v60,2013-03-22 15:36:00,
2013-03-22 11:41:00,30.0,27.4,29.78,North,360,7.0,20.0,90,0.00,,,-99.99,Weather View 32 v60,2013-03-22 15:41:00,
2013-03-22 11:46:00,29.0,26.4,29.78,North,360,13.0,20.0,90,0.00,,,-99.99,Weather View 32 v60,2013-03-22 15:46:00,
2013-03-22 11:51:00,29.0,26.7,29.78,NE,45,8.0,18.0,91,0.00,,,-99.99,Weather View 32 v60,2013-03-22 15:51:00,
2013-03-22 11:56:00,29.0,27.0,29.78,NNW,337,10.0,18.0,92,0.00,,,-99.99,Weather View 32 v60,2013-03-22 15:56:00,
2013-03-22 12:01:00,29.0,26.7,29.78,North,360,10.0,18.0,91,0.00,,,-99.99,Weather View 32 v60,2013-03-22 16:01:00,
2013-03-22 12:11:00,29.0,27.2,29.79,North,360,9.0,18.0,93,0.00,,,-99.99,Weather View 32 v60,2013-03-22 16:11:00,
2013-03-22 12:16:00,29.0,27.0,29.79,North,360,15.0,19.0,92,0.00,,,-99.99,Weather View 32 v60,2013-03-22 16:16:00,
2013-03-22 12:21:00,29.0,27.2,29.79,NNW,337,10.0,19.0,93,0.00,,,-99.99,Weather View 32 v60,2013-03-22 16:21:00,
2013-03-22 12:26:00,29.0,27.0,29.79,North,360,10.0,19.0,92,0.00,,,-99.99,Weather View 32 v60,2013-03-22 16:26:00,
2013-03-22 12:46:00,29.0,27.0,29.79,North,360,14.0,20.0,92,0.00,,,-99.99,Weather View 32 v60,2013-03-22 16:46:00,
2013-03-22 13:01:00,30.0,26.9,29.79,NW,315,7.0,20.0,88,0.00,,,-99.99,Weather View 32 v60,2013-03-22 17:01:00,
2013-03-22 13:06:00,30.0,26.9,29.79,NNW,337,10.0,20.0,88,0.00,,,-99.99,Weather View 32 v60,2013-03-22 17:06:00,
2013-03-22 13:16:00,30.0,26.6,29.79,North,360,8.0,20.0,87,0.00,,,-99.99,Weather View 32 v60,2013-03-22 17:16:00,
2013-03-22 13:21:00,30.0,27.2,29.79,NNW,337,9.0,20.0,89,0.00,,,-99.99,Weather View 32 v60,2013-03-22 17:21:00,
2013-03-22 13:31:00,30.0,26.9,29.79,SW,225,5.0,20.0,88,0.00,,,-99.99,Weather View 32 v60,2013-03-22 17:31:00,
2013-03-22 13:36:00,30.0,26.6,29.79,North,360,10.0,20.0,87,0.00,,,-99.99,Weather View 32 v60,2013-03-22 17:36:00,
2013-03-22 13:41:00,30.0,26.0,29.79,NW,315,11.0,21.0,85,0.00,,,-99.99,Weather View 32 v60,2013-03-22 17:41:00,
2013-03-22 13:46:00,30.0,26.0,29.79,NNW,337,11.0,21.0,85,0.00,,,-99.99,Weather View 32 v60,2013-03-22 17:46:00,
2013-03-22 13:51:00,30.0,25.8,29.79,NW,315,7.0,21.0,84,0.00,,,-99.99,Weather View 32 v60,2013-03-22 17:51:00,
2013-03-22 13:56:00,30.0,26.9,29.79,NW,315,10.0,21.0,88,0.00,,,-99.99,Weather View 32 v60,2013-03-22 17:56:00,
2013-03-22 14:01:00,30.0,25.8,29.79,NW,315,16.0,21.0,84,0.00,,,-99.99,Weather View 32 v60,2013-03-22 18:01:00,
2013-03-22 14:07:00,29.0,25.6,29.79,NW,315,19.0,21.0,87,0.00,,,-99.99,Weather View 32 v60,2013-03-22 18:07:00,
2013-03-22 14:16:00,30.0,26.3,29.79,NNW,337,15.0,21.0,86,0.00,,,-99.99,Weather View 32 v60,2013-03-22 18:16:00,
2013-03-22 14:21:00,30.0,26.0,29.79,NW,315,11.0,21.0,85,0.00,,,-99.99,Weather View 32 v60,2013-03-22 18:21:00,
2013-03-22 14:31:00,30.0,25.8,29.79,North,360,12.0,21.0,84,0.00,,,-99.99,Weather View 32 v60,2013-03-22 18:31:00,
2013-03-22 14:36:00,30.0,25.2,29.79,NNW,337,9.0,21.0,82,0.00,,,-99.99,Weather View 32 v60,2013-03-22 18:36:00,
2013-03-22 14:46:00,30.0,25.2,29.79,North,360,10.0,32.0,82,0.00,,,-99.99,Weather View 32 v60,2013-03-22 18:46:00,
2013-03-22 14:51:00,30.0,25.5,29.78,NW,315,6.0,32.0,83,0.00,,,-99.99,Weather View 32 v60,2013-03-22 18:51:00,
2013-03-22 14:56:00,30.0,25.5,29.78,NW,315,12.0,32.0,83,0.00,,,-99.99,Weather View 32 v60,2013-03-22 18:56:00,
2013-03-22 15:01:00,30.0,24.9,29.78,NNW,337,10.0,32.0,81,0.00,,,-99.99,Weather View 32 v60,2013-03-22 19:01:00,
2013-03-22 15:07:00,30.0,26.3,29.78,NW,315,14.0,32.0,86,0.00,,,-99.99,Weather View 32 v60,2013-03-22 19:07:00,
2013-03-22 15:16:00,29.0,24.8,29.79,North,360,7.0,32.0,84,0.00,,,-99.99,Weather View 32 v60,2013-03-22 19:16:00,
2013-03-22 15:21:00,29.0,25.1,29.79,NW,315,13.0,32.0,85,0.00,,,-99.99,Weather View 32 v60,2013-03-22 19:21:00,
2013-03-22 15:26:00,29.0,25.6,29.79,NNW,337,12.0,32.0,87,0.00,,,-99.99,Weather View 32 v60,2013-03-22 19:26:00,
2013-03-22 15:36:00,29.0,25.1,29.79,North,360,9.0,32.0,85,0.00,,,-99.99,Weather View 32 v60,2013-03-22 19:36:00,
2013-03-22 15:41:00,29.0,25.9,29.78,NW,315,15.0,26.0,88,0.00,,,-99.99,Weather View 32 v60,2013-03-22 19:41:00,
2013-03-22 15:46:00,29.0,25.6,29.78,West,270,5.0,24.0,87,0.00,,,-99.99,Weather View 32 v60,2013-03-22 19:46:00,
2013-03-22 15:51:00,29.0,24.5,29.79,NW,315,15.0,24.0,83,0.00,,,-99.99,Weather View 32 v60,2013-03-22 19:51:00,
2013-03-22 15:56:00,29.0,24.8,29.79,NW,315,14.0,24.0,84,0.00,,,-99.99,Weather View 32 v60,2013-03-22 19:56:00,
2013-03-22 16:01:00,29.0,25.9,29.79,NW,315,13.0,24.0,88,0.00,,,-99.99,Weather View 32 v60,2013-03-22 20:01:00,
2013-03-22 16:06:00,29.0,25.6,29.79,NW,315,17.0,24.0,87,0.00,,,-99.99,Weather View 32 v60,2013-03-22 20:06:00,
2013-03-22 16:16:00,29.0,25.1,29.78,NW,315,14.0,24.0,85,0.00,,,-99.99,Weather View 32 v60,2013-03-22 20:16:00,
2013-03-22 16:21:00,29.0,24.8,29.79,NW,315,7.0,24.0,84,0.00,,,-99.99,Weather View 32 v60,2013-03-22 20:21:00,
2013-03-22 16:26:00,29.0,25.3,29.79,WNW,292,9.0,24.0,86,0.00,,,-99.99,Weather View 32 v60,2013-03-22 20:26:00,
2013-03-22 16:36:00,29.0,25.3,29.79,NW,315,12.0,24.0,86,0.00,,,-99.99,Weather View 32 v60,2013-03-22 20:36:00,
2013-03-22 16:46:00,29.0,24.8,29.79,NW,315,11.0,24.0,84,0.00,,,-99.99,Weather View 32 v60,2013-03-22 20:46:00,
2013-03-22 16:51:00,29.0,25.1,29.79,WNW,292,16.0,24.0,85,0.00,,,-99.99,Weather View 32 v60,2013-03-22 20:51:00,
2013-03-22 16:56:00,29.0,24.5,29.79,NW,315,15.0,24.0,83,0.00,,,-99.99,Weather View 32 v60,2013-03-22 20:56:00,
2013-03-22 17:01:00,29.0,24.8,29.79,NW,315,10.0,24.0,84,0.00,,,-99.99,Weather View 32 v60,2013-03-22 21:01:00,
2013-03-22 17:08:00,29.0,25.3,29.79,NW,315,13.0,24.0,86,0.00,,,-99.99,Weather View 32 v60,2013-03-22 21:08:00,
2013-03-22 17:21:00,29.0,24.5,29.79,NNW,337,13.0,24.0,83,0.00,,,-99.99,Weather View 32 v60,2013-03-22 21:21:00,
2013-03-22 17:31:00,29.0,25.6,29.79,NW,315,14.0,24.0,87,0.00,,,-99.99,Weather View 32 v60,2013-03-22 21:31:00,
2013-03-22 17:36:00,29.0,24.8,29.79,NW,315,14.0,24.0,84,0.00,,,-99.99,Weather View 32 v60,2013-03-22 21:36:00,
2013-03-22 17:51:00,29.0,25.6,29.79,NW,315,12.0,21.0,87,0.00,,,-99.99,Weather View 32 v60,2013-03-22 21:51:00,
2013-03-22 17:56:00,29.0,25.9,29.79,NW,315,8.0,21.0,88,0.00,,,-99.99,Weather View 32 v60,2013-03-22 21:56:00,
2013-03-22 18:01:00,29.0,25.9,29.79,NW,315,10.0,21.0,88,0.00,,,-99.99,Weather View 32 v60,2013-03-22 22:01:00,
2013-03-22 18:06:00,29.0,25.3,29.79,NW,315,10.0,21.0,86,0.00,,,-99.99,Weather View 32 v60,2013-03-22 22:06:00,
2013-03-22 18:16:00,29.0,25.6,29.79,NNW,337,9.0,23.0,87,0.00,,,-99.99,Weather View 32 v60,2013-03-22 22:16:00,
2013-03-22 18:21:00,29.0,25.6,29.79,North,360,4.0,23.0,87,0.00,,,-99.99,Weather View 32 v60,2013-03-22 22:21:00,
2013-03-22 18:26:00,29.0,25.1,29.79,NW,315,10.0,23.0,85,0.00,,,-99.99,Weather View 32 v60,2013-03-22 22:26:00,
2013-03-22 18:31:00,29.0,25.6,29.79,NNE,22,5.0,23.0,87,0.00,,,-99.99,Weather View 32 v60,2013-03-22 22:31:00,
2013-03-22 18:36:00,29.0,25.1,29.79,NNW,337,10.0,23.0,85,0.00,,,-99.99,Weather View 32 v60,2013-03-22 22:36:00,
2013-03-22 18:41:00,28.0,24.4,29.80,NNW,337,10.0,23.0,86,0.00,,,-99.99,Weather View 32 v60,2013-03-22 22:41:00,
2013-03-22 18:46:00,29.0,25.3,29.80,NNW,337,10.0,23.0,86,0.00,,,-99.99,Weather View 32 v60,2013-03-22 22:46:00,
2013-03-22 19:01:00,28.0,25.2,29.81,North,360,13.0,23.0,89,0.00,,,-99.99,Weather View 32 v60,2013-03-22 23:01:00,
2013-03-22 19:06:00,28.0,24.6,29.81,NW,315,10.0,23.0,87,0.00,,,-99.99,Weather View 32 v60,2013-03-22 23:06:00,
2013-03-22 19:16:00,29.0,25.9,29.81,NW,315,12.0,20.0,88,0.00,,,-99.99,Weather View 32 v60,2013-03-22 23:16:00,
2013-03-22 19:21:00,28.0,24.9,29.81,NW,315,10.0,20.0,88,0.00,,,-99.99,Weather View 32 v60,2013-03-22 23:21:00,
2013-03-22 19:26:00,28.0,24.6,29.81,NW,315,8.0,20.0,87,0.00,,,-99.99,Weather View 32 v60,2013-03-22 23:26:00,
2013-03-22 19:31:00,28.0,24.9,29.81,NW,315,8.0,20.0,88,0.00,,,-99.99,Weather View 32 v60,2013-03-22 23:31:00,
2013-03-22 19:36:00,28.0,24.9,29.81,NW,315,9.0,20.0,88,0.00,,,-99.99,Weather View 32 v60,2013-03-22 23:36:00,
2013-03-22 19:41:00,28.0,24.9,29.82,NW,315,10.0,20.0,88,0.00,,,-99.99,Weather View 32 v60,2013-03-22 23:41:00,
2013-03-22 19:46:00,28.0,24.9,29.82,NW,315,8.0,20.0,88,0.00,,,-99.99,Weather View 32 v60,2013-03-22 23:46:00,
2013-03-22 19:51:00,28.0,25.4,29.83,NW,315,12.0,20.0,90,0.00,,,-99.99,Weather View 32 v60,2013-03-22 23:51:00,
2013-03-22 20:01:00,27.0,24.7,29.83,NW,315,10.0,28.0,91,0.00,,,-99.99,Weather View 32 v60,2013-03-23 00:01:00,
2013-03-22 20:06:00,27.0,25.0,29.83,North,360,13.0,28.0,92,0.00,,,-99.99,Weather View 32 v60,2013-03-23 00:06:00,
2013-03-22 20:16:00,27.0,24.7,29.83,NE,45,5.0,28.0,91,0.00,,,-99.99,Weather View 32 v60,2013-03-23 00:16:00,
2013-03-22 20:21:00,27.0,25.0,29.83,NW,315,4.0,28.0,92,0.00,,,-99.99,Weather View 32 v60,2013-03-23 00:21:00,
2013-03-22 20:26:00,27.0,25.0,29.83,NW,315,3.0,28.0,92,0.00,,,-99.99,Weather View 32 v60,2013-03-23 00:26:00,
2013-03-22 20:31:00,27.0,25.0,29.84,NW,315,6.0,28.0,92,0.00,,,-99.99,Weather View 32 v60,2013-03-23 00:31:00,
2013-03-22 20:46:00,27.0,24.7,29.84,North,360,2.0,28.0,91,0.00,,,-99.99,Weather View 32 v60,2013-03-23 00:46:00,
2013-03-22 20:56:00,27.0,25.0,29.84,NNE,22,5.0,28.0,92,0.00,,,-99.99,Weather View 32 v60,2013-03-23 00:56:00,
2013-03-22 21:01:00,27.0,25.2,29.84,North,360,7.0,27.0,93,0.00,,,-99.99,Weather View 32 v60,2013-03-23 01:01:00,
2013-03-22 21:06:00,27.0,25.2,29.84,North,360,8.0,27.0,93,0.00,,,-99.99,Weather View 32 v60,2013-03-23 01:06:00,
2013-03-22 21:11:00,27.0,25.2,29.83,NNE,22,6.0,27.0,93,0.00,,,-99.99,Weather View 32 v60,2013-03-23 01:11:00,
2013-03-22 21:21:00,27.0,25.8,29.84,North,360,8.0,27.0,95,0.00,,,-99.99,Weather View 32 v60,2013-03-23 01:21:00,
2013-03-22 21:26:00,27.0,25.5,29.84,NNW,337,9.0,27.0,94,0.00,,,-99.99,Weather View 32 v60,2013-03-23 01:26:00,
2013-03-22 21:36:00,27.0,25.2,29.83,NNW,337,10.0,15.0,93,0.00,,,-99.99,Weather View 32 v60,2013-03-23 01:36:00,
2013-03-22 21:41:00,27.0,25.5,29.84,North,360,9.0,15.0,94,0.00,,,-99.99,Weather View 32 v60,2013-03-23 01:41:00,
2013-03-22 21:56:00,27.0,25.5,29.84,North,360,9.0,18.0,94,0.00,,,-99.99,Weather View 32 v60,2013-03-23 01:56:00,
2013-03-22 22:11:00,27.0,25.5,29.84,NE,45,5.0,18.0,94,0.00,,,-99.99,Weather View 32 v60,2013-03-23 02:11:00,
2013-03-22 22:21:00,27.0,25.5,29.84,NE,45,6.0,18.0,94,0.00,,,-99.99,Weather View 32 v60,2013-03-23 02:21:00,
2013-03-22 22:26:00,27.0,25.5,29.84,North,360,10.0,18.0,94,0.00,,,-99.99,Weather View 32 v60,2013-03-23 02:26:00,
2013-03-22 22:31:00,27.0,25.5,29.83,North,360,6.0,18.0,94,0.00,,,-99.99,Weather View 32 v60,2013-03-23 02:31:00,
2013-03-22 22:41:00,27.0,25.5,29.83,NE,45,6.0,18.0,94,0.00,,,-99.99,Weather View 32 v60,2013-03-23 02:41:00,
2013-03-22 22:51:00,27.0,25.2,29.83,North,360,7.0,15.0,93,0.00,,,-99.99,Weather View 32 v60,2013-03-23 02:51:00,
2013-03-22 22:56:00,27.0,25.2,29.83,NE,45,6.0,12.0,93,0.00,,,-99.99,Weather View 32 v60,2013-03-23 02:56:00,
2013-03-22 23:06:00,27.0,25.2,29.84,NNE,22,6.0,12.0,93,0.00,,,-99.99,Weather View 32 v60,2013-03-23 03:06:00,
2013-03-22 23:11:00,27.0,25.2,29.84,North,360,7.0,12.0,93,0.00,,,-99.99,Weather View 32 v60,2013-03-23 03:11:00,
2013-03-22 23:16:00,27.0,25.0,29.84,North,360,10.0,15.0,92,0.00,,,-99.99,Weather View 32 v60,2013-03-23 03:16:00,
2013-03-22 23:26:00,27.0,25.0,29.85,NNW,337,8.0,15.0,92,0.00,,,-99.99,Weather View 32 v60,2013-03-23 03:26:00,
2013-03-22 23:36:00,28.0,26.0,29.85,North,360,8.0,15.0,92,0.00,,,-99.99,Weather View 32 v60,2013-03-23 03:36:00,
2013-03-22 23:46:00,28.0,26.0,29.85,NNE,22,9.0,15.0,92,0.00,,,-99.99,Weather View 32 v60,2013-03-23 03:46:00,
2013-03-22 23:56:00,27.0,24.5,29.85,NE,45,5.0,15.0,90,0.00,,,-99.99,Weather View 32 v60,2013-03-23 03:56:00,